Wind_Speed
29 29 29 28 29 31 33 35 36 36 36 37 38 38 39 40 42 43 43 43 44 45 46 46 46 46 46 46 46 46 46 46 46 46 47 47 46 46 45 44 43 41 40
30 31 32 32 33 35 37 39 40 41 42 43 43 44 45 46 46 47 47 47 47 47 47 47 48 48 48 48 48 48 49 50 51 52 52 52 51 50 49 47 46 43 41
35 37 37 38 40 42 43 45 46 46 47 48 48 49 50 51 51 51 51 51 51 51 51 51 51 51 51 51 51 51 51 52 53 55 57 58 58 57 55 53 50 47 44
38 39 40 42 44 45 47 49 50 50 49 50 52 53 54 54 55 56 56 57 57 58 59 59 58 57 56 55 55 54 54 55 55 57 58 60 61 61 61 59 57 53 50
39 40 42 43 44 46 48 49 49 50 51 52 54 55 57 57 58 59 60 63 64 65 65 65 65 65 63 62 61 61 60 60 60 60 61 62 63 63 63 63 62 60 57
40 41 43 45 47 49 50 51 51 54 57 58 60 61 62 63 64 65 67 69 71 72 73 73 72 72 71 70 68 68 67 66 65 65 65 64 65 66 67 66 65 64 63
42 45 47 49 51 53 54 55 58 61 64 67 69 70 69 69 70 72 74 75 77 79 79 80 79 78 77 76 75 74 73 72 71 70 69 68 67 66 67 68 68 67 66
47 49 51 54 55 58 60 62 64 67 71 74 76 77 76 73 72 74 76 77 78 80 81 81 81 80 78 77 76 76 74 72 71 69 68 67 67 67 67 68 70 70 69
52 54 56 57 59 62 65 67 69 72 74 75 77 78 77 74 71 69 70 71 73 74 75 75 75 74 73 72 71 70 68 66 63 62 62 62 63 65 66 69 71 72 73
57 59 60 61 64 65 66 67 67 68 68 68 69 69 68 65 61 57 58 60 61 61 61 61 61 60 60 59 58 57 56 56 55 55 56 58 61 63 64 66 70 73 75
61 62 63 65 64 64 62 61 61 60 59 58 56 55 55 54 53 52 52 51 50 48 47 46 46 46 46 46 46 46 47 48 49 50 51 54 57 60 63 64 66 70 74
62 63 64 63 62 58 56 55 55 54 53 53 52 51 51 51 51 50 49 47 45 41 40 39 39 39 39 40 40 42 43 45 46 47 48 49 50 53 57 60 62 64 68
62 62 61 59 55 51 49 49 49 49 50 50 50 50 49 49 48 47 46 45 42 39 36 36 36 36 37 37 39 40 41 42 43 44 45 46 48 49 52 57 58 59 62
61 60 56 51 47 45 44 45 46 48 49 49 50 49 48 47 46 45 44 42 39 35 33 33 35 35 36 37 37 38 37 37 37 39 42 45 47 48 49 50 52 53 56
60 55 48 44 42 41 43 45 47 48 49 50 50 50 48 47 44 42 41 39 37 32 29 31 33 35 36 35 34 33 31 31 32 34 36 38 40 43 44 46 49 51 53
54 46 42 40 40 42 45 47 49 50 51 51 51 50 48 47 44 41 39 37 36 32 27 26 30 33 34 33 31 29 27 27 27 28 29 30 31 33 36 39 43 47 51
42 39 38 39 41 44 47 49 51 52 52 52 51 49 47 45 43 41 39 37 35 32 26 22 25 27 28 28 28 26 24 23 24 23 23 23 24 27 30 33 37 40 45
35 36 37 40 44 47 50 52 52 52 52 51 49 47 45 43 42 40 38 36 33 30 24 20 21 23 24 24 24 23 22 22 21 20 20 21 23 24 27 30 33 36 40
35 37 39 43 47 51 52 52 52 51 50 48 47 45 42 41 39 37 36 33 31 28 23 19 20 22 22 21 20 20 20 20 20 20 19 20 22 24 27 30 32 35 38
37 39 43 47 50 52 52 51 50 48 47 46 44 41 39 38 36 34 32 30 28 25 22 20 20 21 21 20 19 18 18 19 19 18 19 20 22 25 28 30 32 34 36
41 44 48 51 52 52 51 49 47 45 45 44 42 39 37 36 33 30 28 26 24 22 21 20 19 19 19 19 17 15 15 15 15 15 17 19 21 23 21 21 21 25 30
46 49 52 53 53 51 49 48 45 43 43 41 39 37 35 32 29 26 24 22 21 19 18 17 16 16 16 15 14 12 11 11 10 11 13 15 16 13 10 8 8 15 22
50 52 53 52 51 50 49 46 44 43 41 38 36 33 31 28 25 22 20 18 17 16 15 13 12 11 11 10 8 7 7 6 5 7 9 10 7 5 5 3 7 12 17
52 53 52 51 50 49 46 44 42 41 38 34 30 28 27 24 22 19 17 15 13 12 11 10 10 9 8 6 5 5 5 4 1 4 6 5 6 9 10 10 12 16 20
51 51 51 50 48 46 44 41 39 35 32 28 25 25 23 20 18 15 14 13 11 10 10 9 9 8 7 6 6 7 6 4 3 3 4 7 11 13 13 16 19 23 29
50 51 51 49 45 43 41 37 33 29 26 24 23 22 20 17 13 11 11 11 10 10 9 9 9 8 8 8 9 9 8 6 5 5 6 9 12 14 16 20 26 31 36
Wind_Direction
309 309 307 303 302 302 301 298 294 288 283 280 279 279 280 280 280 279 279 277 276 274 272 270 269 268 267 266 264 262 260 259 258 258 258 258 258 259 260 260 261 261 260
309 308 304 300 297 296 296 294 291 287 282 279 279 281 284 284 285 283 282 280 277 273 270 269 268 268 268 267 266 264 262 260 259 257 257 257 257 257 257 257 257 257 258
308 306 304 302 301 299 298 296 292 288 285 281 280 282 284 286 287 285 283 281 278 275 272 270 269 269 269 268 266 265 263 262 261 259 258 257 257 257 257 256 256 255 254
308 306 303 303 301 299 299 298 294 290 286 284 282 282 285 286 285 284 282 281 280 278 277 276 274 273 271 270 269 267 265 264 263 261 260 259 258 257 257 256 255 255 253
307 306 303 302 300 297 297 295 291 287 286 287 287 287 287 287 286 284 283 282 281 280 278 276 276 275 273 272 271 270 269 267 266 264 262 261 259 258 257 255 254 254 253
307 305 302 301 299 297 295 292 287 286 286 287 288 287 287 287 285 284 283 282 282 280 279 277 275 274 273 272 271 271 271 270 270 268 266 263 260 258 256 254 253 252 252
305 303 301 300 297 296 294 292 289 288 287 287 287 287 286 286 286 285 285 284 282 280 278 276 274 273 272 271 271 271 272 272 271 270 267 264 260 256 253 252 250 250 249
304 302 300 299 298 296 296 294 292 290 289 288 288 287 286 285 285 286 285 284 283 281 278 275 273 272 272 271 271 272 272 271 270 269 266 263 259 254 250 248 247 246 246
304 302 301 300 298 297 296 295 294 293 291 290 289 289 288 287 286 285 285 285 283 281 278 274 272 270 270 270 270 270 269 268 266 264 262 259 256 253 250 247 244 243 241
304 304 303 302 301 300 299 299 298 297 296 294 292 290 290 289 288 288 288 288 287 284 279 275 272 270 269 268 268 267 267 265 263 261 259 257 254 251 250 248 245 242 239
304 304 303 303 302 301 301 302 302 302 301 299 298 295 293 292 291 292 292 292 290 288 283 278 273 269 267 267 266 265 264 264 263 262 261 259 257 255 252 249 246 243 240
304 303 302 301 301 300 301 303 304 305 305 304 302 299 296 294 293 293 292 293 292 289 285 279 273 269 267 265 264 263 263 264 265 265 264 262 259 257 253 249 245 243 240
302 301 300 300 299 300 302 305 307 308 308 306 303 300 297 295 294 293 293 292 290 287 283 278 273 269 266 264 264 264 264 265 267 268 266 262 259 256 253 250 247 244 242
300 300 299 299 299 301 304 307 310 311 310 308 304 300 296 294 293 293 294 293 291 286 280 275 271 268 265 265 267 267 267 269 270 271 267 264 260 256 254 251 247 244 241
301 300 299 298 300 303 306 308 311 312 312 310 306 300 295 292 290 291 293 294 293 289 282 273 268 266 267 268 268 269 269 272 273 273 270 266 261 256 253 250 247 244 239
300 298 297 299 301 304 308 310 312 313 313 311 307 302 295 290 286 286 289 292 294 293 288 275 266 265 267 268 270 270 270 273 275 273 271 268 263 257 253 250 246 242 237
298 297 299 301 304 307 310 312 313 313 313 311 307 302 296 290 285 282 284 288 292 293 290 277 265 262 263 267 269 269 268 269 272 272 271 268 264 260 256 252 249 243 237
300 301 303 305 308 310 311 311 312 312 311 309 306 302 297 292 286 281 280 283 286 290 287 273 263 261 265 269 269 266 264 264 267 269 272 271 268 263 259 255 250 244 238
305 306 307 309 311 312 311 311 310 310 309 306 304 301 298 293 287 281 278 278 280 283 280 269 261 264 269 273 271 266 261 261 266 271 275 278 275 269 264 259 251 244 237
309 310 311 311 312 312 311 310 309 307 306 304 303 302 300 295 289 281 276 275 275 277 274 267 262 265 269 272 272 267 261 261 268 276 281 286 285 282 278 267 255 243 234
311 312 312 312 312 311 310 309 308 305 304 303 302 302 301 296 290 281 274 271 269 269 269 267 265 264 266 269 269 266 261 263 272 279 289 295 298 296 288 278 257 233 222
313 314 313 313 312 311 310 309 307 304 302 301 302 301 301 297 290 282 273 266 260 259 262 266 266 263 263 265 262 258 255 260 270 287 302 311 315 316 308 285 231 206 201
315 315 315 314 313 311 310 310 308 304 302 302 301 301 299 295 288 281 272 261 251 250 253 258 257 259 261 259 250 243 242 245 265 303 321 332 344 37 36 93 147 161 173
317 317 317 316 314 312 311 310 308 305 304 303 301 302 300 293 286 278 267 254 243 239 238 244 247 252 253 240 217 201 198 200 282 345 349 19 87 95 75 93 119 137 147
320 319 318 317 315 314 313 312 311 308 305 303 302 305 303 293 283 272 255 239 227 225 228 234 237 239 227 200 173 167 161 141 85 42 51 95 116 113 93 95 111 125 136
322 322 321 320 319 318 317 317 317 313 309 304 303 305 303 294 277 259 234 215 208 213 219 223 221 209 189 167 155 152 141 120 102 90 96 116 130 130 114 108 114 123 131
Height
5839 5836 5833 5831 5830 5828 5826 5824 5822 5819 5817 5814 5813 5811 5810 5808 5806 5804 5803 5801 5800 5797 5795 5794 5792 5792 5792 5792 5793 5794 5795 5796 5797 5798 5799 5800 5802 5804 5806 5808 5810 5813 5816
5833 5831 5828 5825 5823 5821 5818 5815 5813 5810 5808 5805 5803 5801 5799 5796 5794 5792 5790 5788 5786 5785 5783 5782 5780 5779 5779 5779 5780 5780 5781 5783 5784 5785 5786 5788 5790 5792 5794 5797 5799 5802 5805
5825 5822 5820 5817 5814 5811 5808 5805 5802 5799 5796 5793 5791 5788 5786 5783 5781 5778 5776 5773 5771 5770 5769 5767 5767 5766 5765 5765 5766 5767 5768 5769 5770 5771 5773 5774 5776 5779 5781 5784 5787 5790 5794
5818 5814 5811 5808 5804 5800 5796 5793 5789 5786 5783 5780 5778 5776 5773 5771 5768 5765 5762 5759 5757 5754 5752 5750 5749 5749 5749 5749 5750 5751 5753 5754 5755 5757 5758 5760 5762 5764 5767 5770 5774 5777 5781
5809 5806 5802 5799 5794 5790 5787 5783 5779 5775 5771 5768 5765 5763 5760 5757 5754 5750 5747 5744 5741 5738 5735 5732 5730 5730 5730 5730 5731 5733 5735 5737 5739 5741 5743 5745 5747 5749 5752 5755 5759 5763 5767
5802 5797 5793 5789 5784 5780 5776 5772 5767 5763 5758 5754 5751 5748 5745 5742 5738 5734 5730 5727 5723 5719 5715 5712 5711 5709 5709 5710 5711 5713 5715 5718 5720 5722 5724 5727 5729 5732 5735 5739 5743 5747 5752
5792 5788 5784 5779 5774 5769 5765 5760 5756 5750 5744 5738 5733 5731 5729 5725 5721 5716 5711 5706 5702 5697 5693 5689 5687 5686 5687 5688 5689 5691 5694 5697 5700 5701 5703 5706 5709 5712 5716 5720 5725 5730 5735
5782 5778 5773 5768 5762 5757 5751 5746 5741 5734 5727 5720 5714 5709 5708 5709 5704 5697 5690 5683 5678 5673 5668 5665 5663 5663 5664 5666 5668 5670 5673 5676 5678 5680 5683 5686 5688 5691 5695 5699 5704 5711 5718
5771 5766 5761 5755 5749 5742 5735 5729 5723 5716 5709 5701 5693 5687 5683 5682 5681 5679 5669 5662 5655 5649 5644 5641 5639 5639 5641 5643 5646 5648 5651 5655 5657 5659 5663 5666 5668 5670 5674 5678 5684 5690 5698
5758 5752 5746 5740 5733 5726 5719 5711 5704 5696 5689 5681 5674 5668 5662 5659 5657 5656 5650 5642 5635 5628 5623 5620 5619 5620 5621 5624 5626 5629 5632 5635 5637 5640 5642 5645 5646 5649 5653 5657 5663 5669 5677
5745 5738 5732 5724 5717 5710 5702 5695 5687 5680 5672 5665 5658 5652 5647 5643 5639 5636 5632 5626 5620 5613 5608 5606 5604 5605 5606 5608 5610 5613 5616 5618 5621 5623 5625 5626 5627 5630 5633 5637 5642 5648 5655
5733 5725 5718 5710 5703 5696 5689 5682 5674 5667 5660 5652 5645 5639 5634 5630 5626 5622 5617 5612 5607 5603 5598 5595 5594 5594 5594 5595 5597 5600 5602 5604 5606 5607 5609 5609 5610 5611 5614 5617 5623 5628 5635
5720 5713 5705 5698 5690 5683 5677 5670 5663 5656 5649 5642 5635 5629 5623 5618 5614 5610 5605 5600 5596 5593 5590 5586 5584 5583 5584 5585 5586 5588 5590 5592 5593 5593 5593 5593 5593 5594 5596 5600 5605 5611 5618
5707 5699 5692 5685 5678 5672 5666 5659 5652 5645 5638 5632 5625 5619 5613 5608 5603 5598 5593 5589 5585 5583 5581 5578 5575 5574 5574 5575 5576 5577 5578 5580 5580 5579 5578 5577 5577 5578 5580 5584 5589 5595 5601
5692 5685 5678 5673 5667 5662 5655 5649 5642 5635 5628 5621 5614 5607 5602 5597 5592 5588 5583 5578 5575 5573 5572 5568 5565 5564 5564 5565 5566 5567 5568 5568 5568 5566 5564 5563 5562 5563 5565 5569 5573 5578 5584
5678 5672 5667 5663 5657 5652 5645 5639 5631 5624 5616 5609 5602 5595 5589 5585 5581 5577 5573 5569 5565 5562 5562 5560 5557 5555 5555 5556 5556 5557 5558 5558 5558 5556 5553 5551 5550 5550 5551 5553 5556 5561 5567
5666 5662 5658 5653 5648 5642 5635 5627 5620 5612 5604 5596 5589 5582 5577 5572 5568 5565 5563 5560 5557 5553 5552 5551 5549 5548 5548 5548 5549 5549 5550 5550 5549 5547 5545 5543 5541 5540 5540 5541 5543 5546 5551
5658 5654 5649 5644 5638 5631 5623 5615 5607 5599 5591 5584 5576 5569 5564 5559 5556 5553 5552 5550 5548 5546 5544 5544 5542 5541 5541 5542 5542 5542 5542 5542 5541 5539 5537 5535 5533 5532 5531 5531 5532 5534 5538
5651 5646 5641 5634 5627 5619 5611 5602 5594 5586 5578 5571 5564 5557 5552 5547 5544 5542 5541 5540 5540 5538 5537 5537 5536 5535 5535 5535 5536 5536 5536 5535 5534 5533 5531 5529 5526 5524 5522 5520 5520 5521 5525
5644 5638 5631 5624 5616 5607 5598 5589 5580 5572 5565 5557 5551 5546 5540 5536 5532 5531 5530 5530 5531 5531 5530 5530 5530 5530 5530 5530 5530 5530 5530 5529 5529 5527 5525 5523 5519 5515 5511 5508 5507 5508 5512
5635 5628 5621 5613 5604 5594 5585 5576 5568 5560 5552 5545 5539 5534 5530 5525 5522 5520 5521 5522 5523 5523 5523 5523 5524 5524 5524 5524 5524 5524 5524 5524 5524 5522 5520 5517 5512 5507 5501 5496 5494 5495 5500
5625 5617 5609 5600 5590 5581 5571 5563 5555 5548 5541 5534 5529 5524 5519 5515 5513 5511 5512 5514 5515 5516 5517 5517 5518 5518 5519 5519 5519 5520 5520 5520 5520 5519 5516 5512 5507 5501 5495 5490 5489 5491 5495
5615 5606 5596 5586 5576 5567 5558 5550 5543 5535 5528 5523 5519 5514 5510 5507 5505 5504 5505 5506 5508 5510 5511 5513 5514 5514 5515 5515 5516 5516 5517 5518 5518 5516 5514 5510 5505 5501 5496 5492 5490 5492 5495
5603 5593 5583 5573 5564 5554 5546 5539 5531 5522 5517 5513 5509 5505 5502 5499 5497 5497 5498 5500 5503 5505 5507 5509 5510 5511 5512 5512 5513 5515 5516 5517 5516 5515 5513 5510 5507 5504 5501 5498 5495 5496 5499
5592 5582 5571 5562 5552 5543 5535 5527 5519 5512 5507 5503 5500 5497 5494 5492 5491 5491 5493 5495 5498 5501 5503 5505 5507 5508 5509 5511 5513 5514 5516 5517 5516 5515 5514 5512 5511 5510 5509 5507 5504 5504 5507
5581 5571 5560 5550 5540 5532 5524 5517 5510 5504 5499 5496 5493 5490 5488 5486 5485 5486 5489 5492 5495 5497 5500 5502 5504 5506 5508 5510 5513 5515 5517 5517 5517 5517 5516 5516 5516 5517 5517 5516 5515 5516 5519